Regional Weather Roundup
Issued by NWS

Home | Current Version | Previous Version | Graphics & Text | Print | Product List | Glossary Off
Versions: 1 2 3 4 5 6 7 8 9 10 11 12 13 14 15 16 17 18 19 20 21 22 23 24 25 26 27

000
ASUS45 KCYS 231210
RWRWY

WYOMING REGIONAL WEATHER ROUNDUP
NATIONAL WEATHER SERVICE CHEYENNE WY
500 AM MST MON JAN 23 2017

NOTE:  "FAIR" INDICATES FEW OR NO CLOUDS BELOW 12,000 FEET
WITH NO SIGNIFICANT WEATHER AND/OR OBSTRUCTIONS TO VISIBILITY.

WYZ001-231300-
YELLOWSTONE NATIONAL PARK

CITY           SKY/WX    TMP DP  RH WIND       PRES   REMARKS
LK YELLOWSTONE   N/A     12  10  92 CALM      29.60S
6HR MIN TEMP:   7; 6HR MAX TEMP:  17;

W YELLOWSTONE  NOT AVBL

$$
WYZ002>013-054>058-071-098>099-231300-
NORTHERN WYOMING

CITY           SKY/WX    TMP DP  RH WIND       PRES   REMARKS
JACKSON        CLOUDY    16  16 100 NE3       29.61F
CODY           FAIR      16  11  80 CALM      29.58F
GREYBULL       FAIR      15  11  83 N3        29.60F
6HR MIN TEMP:  12; 6HR MAX TEMP:  17;

WORLAND        MOCLDY    21  19  92 SW7       29.60F WCI  12
6HR MIN TEMP:  20; 6HR MAX TEMP:  31; 6HR PCP: TRACE;

SHERIDAN       FAIR      19  16  88 CALM      29.61S
6HR MIN TEMP:  18; 6HR MAX TEMP:  22;

BUFFALO        CLOUDY    31  16  54 SW7       29.58F WCI  24
6HR MIN TEMP:  21; 6HR MAX TEMP:  34;

GILLETTE       CLOUDY    31  26  82 W14       29.58F WCI  21
6HR MIN TEMP:  26; 6HR MAX TEMP:  32;

HULETT         CLOUDY    28  19  69 SE3       29.62S
NEWCASTLE      CLOUDY    30  19  64 SE9       29.67S WCI  22

$$
WYZ014>020-022>026-101>103-231300-
CENTRAL WYOMING

CITY           SKY/WX    TMP DP  RH WIND       PRES   REMARKS
BIG PINEY      LGT SNOW  16  14  92 NW3       29.63F FOG
6HR MIN TEMP:  14; 6HR MAX TEMP:  18; 6HR PCP:  0.05;

PINEDALE       LGT SNOW  18  18 100 W3        29.62F
DUBOIS         NOT AVBL
LANDER         FAIR      17  12  80 NW7       29.59F WCI   8
6HR MIN TEMP:  15; 6HR MAX TEMP:  22;

RIVERTON       CLOUDY    17  13  84 W7        29.61S WCI   8
6HR MIN TEMP:  14; 6HR MAX TEMP:  22;

CASPER         FAIR      26  22  84 NW6       29.61S WCI  19
6HR MIN TEMP:  26; 6HR MAX TEMP:  31; 6HR PCP:  0.02;

DOUGLAS        MOCLDY    31  21  66 VRB5      29.61F WCI  26
6HR MIN TEMP:  27; 6HR MAX TEMP:  35;


$$
WYZ021-027>030-104>119-231300-
SOUTHERN WYOMING

CITY           SKY/WX    TMP DP  RH WIND       PRES   REMARKS
EVANSTON       LGT SNOW  22  18  85 E10       29.55F FOG     WCI  11
6HR MIN TEMP:  19; 6HR MAX TEMP:  22; 6HR PCP:  0.21;

ROCK SPRINGS   CLOUDY    26  19  74 SE6       29.61F WCI  19
6HR MIN TEMP:  23; 6HR MAX TEMP:  27; 6HR PCP: TRACE;

RAWLINS        FLURRIES  28  22  78 SW21      29.62F WCI  15
6HR MIN TEMP:  26; 6HR MAX TEMP:  29; 6HR PCP: TRACE;

LARAMIE        CLOUDY    26  19  74 S8        29.63F WCI  18
6HR MIN TEMP:  22; 6HR MAX TEMP:  27; 6HR PCP: TRACE;

CHEYENNE       CLOUDY    25  14  63 CALM      29.64F
6HR MIN TEMP:  23; 6HR MAX TEMP:  29;

TORRINGTON     MOCLDY    25  18  74 SE7       29.66F WCI  17
6HR MIN TEMP:  23; 6HR MAX TEMP:  30;


$$




USA.gov is the U.S. government's official web portal to all federal, state and local government web resources and services.